#timestamp,LO_Frequency,Hit,StdDev 
1702990815.3,286046999.8,N
1702990835.1,286047001.6,N
1702990855.9,286047002.4,N
1702990875.7,286047002.4,N
1702990895.5,286047002.0,N
1702990915.4,286047000.0,N
1702990935.2,286047001.0,N
1702990955.1,286046999.9,N
1702990956.0,286046999.9,N
1702990975.8,286046999.7,N
1702990995.6,286047000.3,N
1702991015.5,286047002.1,N
1702991035.3,286046999.8,N
1702991055.2,286047002.8,N
1702991075.9,286046999.7,N
1702991095.7,286047000.4,N
1702991115.6,286046998.6,N
1702991135.4,286047001.1,N
1702991155.2,286047000.9,N
1702991175.1,286047000.1,N
1702991176.0,286047000.1,N
1702991195.8,286046999.9,N
1702991215.7,286047000.8,N
1702991235.5,286046999.7,N
1702991255.3,286047002.1,N
1702991275.2,286047002.1,N
1702991295.9,286046999.8,N
1702991315.7,286047000.9,N
1702991335.6,286046998.3,N
1702991355.4,286047002.8,N
1702991375.3,286047002.3,N
1702991395.1,286046999.7,N
1702991415.9,286047000.1,N
1702991435.7,286047000.2,N
1702991455.5,286047002.0,N
1702991475.4,286047001.6,N
1702991495.2,286047002.2,N
1702991515.1,286047002.5,N
1702991516.0,286047002.5,N
1702991535.8,286047002.0,N
1702991555.6,286046999.7,N
1702991575.5,286046999.8,N
1702991595.3,286047002.0,N
1702991615.1,286047000.0,N
1702991635.9,286047000.4,N
1702991655.7,286047002.5,N
1702991675.6,286047002.4,N
1702991695.4,286047002.7,N
1702991715.2,286047002.2,N
1702991735.1,286047002.2,N
1702991736.0,286047002.2,N
1702991755.8,286047002.2,N
1702991775.7,286046999.7,N
1702991795.5,286047001.7,N
1702991815.3,286047001.3,N
1702991835.2,286047003.9,Y
1702991855.0,286047002.6,P
1702991855.9,286047002.6,P
1702991875.7,286047001.0,N
1702991895.6,286047000.9,N
1702991915.4,286046998.5,N
1702991935.3,286046999.0,N
1702991955.1,286046999.3,N
1702991956.0,286046999.3,N
1702991975.8,286046999.0,N
1702991995.7,286047000.7,N
1702992015.5,286047000.9,N
1702992035.3,286046996.6,N
1702992055.2,286046996.8,N
1702992075.0,286046998.4,N
1702992075.9,286046998.4,N
1702992095.8,286046999.5,N
1702992115.6,286046998.9,N
1702992135.4,286046998.9,N
1702992155.3,286046999.1,N
1702992175.1,286046997.2,N
1702992195.9,286046996.9,N
1702992215.7,286046999.0,N
1702992235.5,286046998.6,N
1702992255.4,286046998.6,N
1702992275.2,286046998.6,N
1702992295.0,286047001.1,N
1702992295.9,286047001.1,N
1702992315.8,286046998.1,N
1702992335.6,286046998.2,N
1702992355.4,286047001.0,N
1702992375.3,286047000.6,N
1702992395.1,286046999.9,N
1702992415.9,286047002.2,N
1702992435.7,286047001.8,N
1702992455.5,286047001.7,N
1702992475.4,286047002.7,N
1702992495.2,286047000.4,N
1702992515.0,286046998.6,N
1702992516.0,286046998.6,N
1702992535.8,286046998.3,N
1702992555.4,286046998.8,N
1702992575.3,286046998.5,N
1702992595.1,286047000.8,N
1702992596.0,286047000.8,N
1702992615.8,286047000.0,N
1702992635.7,286046998.6,N
1702992655.5,286047000.6,N
1702992675.3,286046998.6,N
1702992695.2,286046998.4,N
1702992715.0,286046999.2,N
1702992715.9,286046999.2,N
1702992735.8,286046998.9,N
1702992755.6,286046998.1,N
1702992775.4,286047001.2,N
1702992795.3,286047001.0,N
1702992815.1,286047001.1,N
1702992835.8,286047000.8,N
1702992855.7,286047000.4,N
1702992875.5,286047000.5,N
1702992895.4,286047002.3,N
1702992915.2,286046999.9,N
1702992935.0,286047000.2,N
1702992935.9,286047000.2,N
1702992955.8,286047000.8,N
1702992975.6,286047002.2,N
1702992995.4,286047002.8,N
1702993015.3,286047000.8,N
1702993035.1,286047000.0,N
1702993055.9,286047000.0,N
1702993075.7,286047000.3,N
1702993095.5,286046999.8,N
1702993115.4,286047002.1,N
1702993135.2,286047001.8,N
1702993155.0,286047004.3,Y
1702993155.9,286047004.3,P
1702993175.8,286047002.0,N
1702993195.6,286047001.6,N
1702993215.5,286047002.7,N
1702993235.3,286047001.4,N
1702993255.1,286047002.2,N
1702993275.9,286047003.9,Y
1702993295.7,286047002.8,P
1702993315.5,286047000.0,N
1702993335.4,286046999.9,N
1702993355.2,286047000.9,N
1702993375.1,286047001.0,N
1702993376.0,286047001.0,N
1702993395.8,286046999.0,N
1702993415.6,286046999.0,N
1702993435.5,286046999.5,N
1702993455.3,286046998.9,N
1702993475.1,286046996.5,N
1702993495.9,286046996.7,N
1702993515.7,286046997.0,N
1702993535.6,286046999.4,N
1702993555.4,286046998.3,N
1702993575.2,286046998.4,N
1702993595.1,286046998.9,N
1702993596.0,286046998.9,N
1702993615.8,286047000.8,N
1702993635.6,286046999.0,N
1702993655.5,286046997.1,N
1702993675.3,286046996.8,N
1702993695.2,286046996.6,N
1702993715.9,286046999.2,N
1702993735.7,286046998.2,N
1702993755.6,286047001.2,N
1702993775.4,286046998.5,N
1702993795.2,286046998.5,N
1702993815.1,286046998.3,N
1702993816.0,286046998.3,N
1702993835.8,286047000.9,N
1702993855.7,286047001.2,N
1702993875.5,286047000.9,N
1702993895.3,286047000.4,N
1702993915.2,286047000.6,N
1702993935.0,286046998.6,N
1702993935.9,286046998.6,N
1702993955.8,286046999.0,N
1702993975.6,286046999.4,N
1702993995.4,286046998.4,N
1702994015.3,286046997.7,N
1702994035.1,286046997.7,N
1702994055.9,286046997.4,N
1702994075.7,286046997.1,N
1702994095.5,286046997.4,N
1702994115.4,286046997.1,N
1702994135.2,286046997.2,N
1702994155.0,286046997.0,N
1702994155.9,286046997.0,N
1702994175.8,286046999.4,N
1702994195.6,286046998.7,N
1702994215.5,286046998.8,N
1702994235.3,286046997.3,N
1702994255.1,286046997.8,N
1702994275.9,286046997.2,N
1702994295.7,286046999.6,N
1702994315.5,286046999.0,N
1702994335.4,286046999.5,N
1702994355.2,286046999.5,N
1702994375.1,286046998.6,N
1702994376.0,286046998.6,N
1702994395.8,286047000.5,N
